Tracking 19794 objects as of 21-Jul-2019
HD Live streaming from Space Station
objects crossing your sky now

FENGYUN 1C DEB

Track FENGYUN 1C DEB now!
10-day predictions


NORAD ID: 31912
Int'l Code: 1999-025CLP
Perigee: 772.4 km
Apogee: 1,603.8 km
Inclination: 98.8 °
Period: 109.0 minutes
Semi major axis: 7559 km
RCS: 0.0133 m2 (small)
Launch date: May 10, 1999
Source: People's Republic of China (PRC)
Launch site: Taiyaun Space Center, China (TSC)

Note: This is SATELLITE DEBRIS
aabbcc
Your satellite tracking list
Your tracking list is empty




NASA's NSSDC Master Catalog

Two Line Element Set (TLE):
1 31912U 99025CLP 19134.97315447  .00000130  00000-0  18346-3 0  9998
2 31912  98.8330 198.4390 0549922 346.4434  12.2408 13.20994176574276
Source of the keplerian elements: AFSPC